xiamen , China , ASIA

  • Thursday
    January 23

    Light rain  Light rain

    73 °F  63 °F

    East  Northeast

    3~4L   3~4L 

  • Friday
    January 24

    Cloudy  Overcast

    70 °F  61 °F

    Northeast  Northeast

    4~5L   3~4L 

  • Saturday
    January 25

    Overcast  Moderate rain

    72 °F  61 °F

    East  Northeast

    3~4L   3~4L 

  • Sunday
    January 26

    Light rain  Light rain

    70 °F  52 °F

    No wind  Northwest

       3~4L 

  • Monday
    January 27

    Sunny  Sunny

    66 °F  52 °F

    No wind  No wind

        

  • Tuesday
    January 28

    Sunny  Sunny

    63 °F  50 °F

    Northeast  Northeast

    3~4L   3~4L 

  • Wednesday
    January 29

    Sunny  Sunny

    63 °F  48 °F

    No wind  No wind

        

Date   Weather Temperature Humidity Total_rain Visibility Wind
11:00 Light rain 70°F 86.3% 2.2mm 999.9km Northeast  2.0m/s
14:00 Light rain 73°F 82.6% 0.2mm 999.9km Northeast  2.0m/s
17:00 Light rain 70°F 88.1% 0.1mm 999.9km Northeast  1.6m/s
20:00 Light rain 67°F 90.7% 0.2mm 999.9km Northeast  2.1m/s
23:00 Light rain 64°F 92.8% 0.5mm 999.9km Northeast  2.5m/s
02:00 Light rain 63°F 95% 1.6mm 999.9km Northeast  2.1m/s
05:00 Light rain 63°F 93.2% 1.5mm 999.9km Northeast  2.2m/s
08:00 Light rain 63°F 80.5% 0.5mm 999.9km Northeast  2.1m/s
11:00 Cloudy 69°F 81% 0mm 999.9km Northeast  2.5m/s
14:00 Cloudy 69°F 87.8% 0mm 999.9km Northeast  2.4m/s
17:00 Cloudy 66°F 88.5% 0mm 999.9km Northeast  2.2m/s
20:00 Cloudy 61°F 89.2% 0mm 999.9km Northeast  3.1m/s
23:00 Overcast 61°F 91.7% 0mm 999.9km Northeast  2.4m/s
02:00 Overcast 61°F 93.1% 0mm 999.9km Northeast  1.7m/s
05:00 Overcast 61°F 91.1% 0mm 999.9km Northeast  2.0m/s
08:00 Overcast 61°F 89.2% 0mm 999.9km Northeast  1.6m/s
11:00 Overcast 68°F 74.2% 0mm 999.9km Northeast  1.6m/s
14:00 Overcast 71°F 80.5% 0mm 999.9km Northeast  1.9m/s
17:00 Overcast 68°F 87% 0mm 999.9km Northeast  2.4m/s
20:00 Overcast 63°F 89.7% 0mm 999.9km Northeast  2.4m/s
23:00 Moderate rain 62°F 92.4% 5.1mm 999.9km Northeast  2.2m/s
02:00 Moderate rain 62°F 87.5% 4.9mm 999.9km Northeast  1.6m/s
05:00 Overcast 61°F 90.5% 0mm 999.9km Northeast  2.0m/s
08:00 Overcast 61°F 93.4% 0mm 999.9km Northeast  1.7m/s
11:00 Light rain 67°F 66.7% 0.1mm 999.9km Northeast  1.9m/s
14:00 Light rain 69°F 73.5% 0.1mm 999.9km Northeast  2.1m/s
17:00 Light rain 67°F 76.6% 0.8mm 999.9km Northeast  2.1m/s
20:00 Light rain 60°F 77.7% 0.2mm 999.9km Northeast  2.7m/s
23:00 Light rain 57°F 78.8% 0.2mm 999.9km Northeast  2.6m/s
02:00 Light rain 54°F 84.2% 0.1mm 999.9km Northeast  2.2m/s
05:00 Cloudy 52°F 79.9% 0mm 999.9km Northeast  1.9m/s
08:00 Cloudy 54°F 78.7% 0mm 999.9km Northeast  2.6m/s
11:00 Sunny 63°F 68.5% 0mm 999.9km Northeast  2.3m/s
14:00 Sunny 66°F 68.8% 0mm 999.9km Northeast  2.3m/s
17:00 Sunny 63°F 81.1% 0mm 999.9km Northeast  2.5m/s
20:00 Sunny 60°F 81.9% 0mm 999.9km Northeast  3.2m/s
23:00 Sunny 55°F 82.7% 0mm 999.9km Northeast  2.3m/s
02:00 Sunny 54°F 71.9% 0mm 999.9km Northeast  2.3m/s
05:00 Sunny 52°F 73.9% 0mm 999.9km Northeast  2.0m/s
08:00 Sunny 55°F 74.5% 0mm 999.9km Northeast  2.2m/s
11:00 Sunny 60°F 63.9% 0mm 999.9km Northeast  2.2m/s
14:00 Sunny 62°F 72% 0mm 999.9km Northeast  2.2m/s
17:00 Sunny 57°F 77% 0mm 999.9km Northeast  3.0m/s
20:00 Sunny 56°F 82.9% 0mm 999.9km Northeast  2.6m/s
23:00 Sunny 54°F 88.8% 0mm 999.9km Northeast  2.5m/s
02:00 Sunny 54°F 88% 0mm 999.9km Northeast  2.0m/s
05:00 Sunny 50°F 88.1% 0mm 999.9km Northeast  2.1m/s
08:00 Sunny 56°F 69.4% 0mm 999.9km Northeast  2.0m/s
11:00 Sunny 61°F 67.5% 0mm 999.9km Northeast  2.9m/s
14:00 Sunny 62°F 78.5% 0mm 999.9km Northeast  2.0m/s
17:00 Sunny 56°F 83.7% 0mm 999.9km Northeast  2.8m/s
20:00 Sunny 56°F 86.2% 0mm 999.9km Northeast  2.4m/s
23:00 Sunny 52°F 88.7% 0mm 999.9km Northeast  2.7m/s
02:00 Sunny 50°F 87% 0mm 999.9km Northeast  2.2m/s
05:00 Sunny 49°F 85% 0mm 999.9km Northeast  2.4m/s